Location: Castillon
(43.1358°N, 0.8654°E)
Time: 19:23:01
(UTC+00:00)

Cosmos 2082 Rocket - Pass Details

Date: 24 January 2021
Orbit: 832 x 855 km, 71.0° (Epoch: 28 February)

Event Time Altitude Azimuth Distance (km) Brightness Sun altitude
Rises 20:19:29 0° 331° (NNW) 3,433 5.8 -36.5°
Reaches altitude 10° 20:22:00 10° 326° (NNW) 2,492 5.0 -37.0°
Enters shadow 20:24:34 27° 315° (NW) 1,602 4.0 -37.4°
